Wind_Speed
17 22 25 24 23 20 20 29 35 38 41 43 46 46 43 44 43 42 41 40 38 37 36 34 32 29 27 25 23 23 21 21 20 19 15 15 23 22 20 25 23 15 9 5 7 12 10 11 12 12 9 4 3 2 6 6 2 2 2 3 1 3 4 5 7 6 4 3 6 6 7 10 5 4 2 2 5 3 2 3 3 4 3 5 3 14 30 28
16 20 26 29 28 25 23 26 30 35 41 40 44 47 44 45 44 43 42 41 39 38 37 34 33 30 28 26 24 24 22 21 18 15 16 18 21 21 18 22 25 19 10 5 7 12 7 3 5 10 7 3 2 3 3 3 2 2 2 1 4 5 4 5 7 6 4 3 5 6 6 8 8 7 4 3 3 1 2 2 4 3 3 2 7 21 30 27
15 18 23 25 25 26 27 29 29 31 40 43 45 48 46 45 44 44 43 41 40 39 38 36 33 31 29 27 25 25 21 15 9 10 19 20 19 22 20 19 23 21 12 6 8 14 11 5 6 11 6 3 3 3 3 2 3 1 3 1 6 5 5 4 5 6 5 4 6 6 4 6 7 7 4 5 6 4 5 4 1 3 3 5 11 22 26 26
15 16 20 23 24 25 25 30 30 29 37 44 46 50 48 46 45 45 44 42 40 40 39 37 35 32 30 28 26 25 17 6 3 11 21 22 19 21 20 19 20 20 14 8 8 13 13 10 10 10 5 3 3 3 2 1 2 0 3 3 5 3 3 5 6 7 5 5 6 4 4 4 6 4 4 8 8 5 7 8 7 9 9 9 11 18 24 24
13 14 16 20 23 24 22 25 28 28 34 41 44 49 50 47 47 45 45 43 40 41 40 38 36 33 31 28 26 24 15 3 4 14 23 22 21 20 20 19 17 17 14 10 9 9 10 9 9 7 4 2 2 1 0 2 1 0 3 4 3 3 3 5 5 5 3 4 5 5 5 6 4 2 6 11 10 7 6 9 9 9 12 15 16 18 21 20
12 13 13 17 21 22 20 22 24 25 30 40 44 48 50 48 48 46 45 44 41 41 40 39 37 34 32 28 27 24 13 2 2 12 25 24 22 21 19 19 18 17 13 12 11 8 7 7 6 5 4 2 0 1 1 3 2 1 4 3 3 3 4 4 1 3 3 6 7 7 5 5 7 3 6 11 10 5 4 7 8 9 15 21 21 20 18 17
12 14 14 17 22 24 22 20 22 23 26 35 42 49 53 48 48 46 44 44 43 42 41 39 38 35 32 28 25 17 9 3 1 11 25 24 23 21 20 19 18 18 14 14 14 8 5 5 4 6 5 3 1 1 1 3 0 2 4 5 5 4 6 5 1 2 5 7 8 6 3 7 10 5 4 8 10 4 6 3 9 9 13 18 18 17 18 20
12 14 14 14 21 27 27 23 22 24 24 29 38 47 53 50 47 46 46 45 43 43 41 40 39 36 34 29 18 7 5 4 1 14 24 23 23 22 21 20 17 18 16 15 14 10 6 5 5 4 4 3 1 1 2 4 1 1 4 5 5 3 5 5 3 3 5 6 3 5 5 7 7 4 5 9 10 5 3 4 10 9 10 12 13 15 16 18
14 14 15 14 18 25 28 26 23 25 25 27 35 44 48 49 49 47 46 45 44 44 42 41 39 36 35 25 11 5 7 7 5 16 24 23 23 23 22 20 19 19 17 15 15 14 9 4 3 3 5 4 2 2 3 2 1 1 4 6 7 7 6 4 3 3 3 4 4 6 6 3 1 1 3 9 8 2 2 7 9 9 9 10 11 13 15 15
15 15 16 16 18 22 25 26 25 25 27 27 31 45 48 47 50 48 47 45 44 44 42 42 39 37 32 19 9 6 7 9 10 18 24 23 22 23 22 21 22 21 19 16 17 16 9 7 5 4 5 4 2 3 2 1 1 5 6 8 9 8 7 2 2 4 2 2 6 8 5 3 2 0 4 7 5 5 7 7 7 10 10 11 9 11 15 17
17 16 17 18 18 21 24 24 26 26 28 28 29 45 54 49 51 50 48 46 44 45 43 42 40 37 28 16 10 6 7 13 15 19 23 23 23 23 22 23 23 23 21 14 15 16 11 15 14 4 3 3 2 3 1 2 5 7 7 9 9 6 6 3 3 4 1 1 5 8 4 3 3 1 7 6 5 8 9 8 8 10 10 10 10 9 12 16
18 17 17 19 18 20 24 24 26 27 29 28 30 44 58 52 52 50 48 48 45 45 43 43 41 35 24 11 6 6 9 17 19 21 24 24 23 22 22 24 21 21 22 15 10 12 16 22 17 4 1 4 3 1 0 3 6 6 4 6 8 7 5 5 3 2 1 2 4 7 3 3 3 6 8 4 5 7 9 10 9 9 8 8 9 7 9 14
18 19 18 19 19 20 22 23 25 28 28 26 28 43 57 51 52 51 49 48 45 46 44 43 41 33 20 5 3 8 12 19 24 24 25 25 21 18 20 22 19 17 18 17 13 14 20 21 15 7 2 4 4 2 1 3 5 5 3 1 5 6 5 5 2 1 3 2 3 6 3 6 8 11 7 3 6 9 7 8 9 8 7 7 8 7 8 12
19 20 19 19 20 20 21 22 25 27 25 24 26 38 53 49 51 51 49 48 46 46 44 44 40 29 14 3 3 10 17 22 26 27 27 26 20 16 17 17 16 14 13 16 16 16 19 16 12 9 1 1 3 1 3 3 3 5 4 2 1 1 5 6 1 4 5 2 0 5 4 7 9 11 7 5 6 10 9 8 9 8 7 7 8 9 8 11
20 21 20 20 20 21 22 22 24 25 23 24 26 31 47 48 48 49 50 49 46 47 45 43 37 23 8 0 3 12 21 24 25 28 28 27 24 16 13 15 13 13 13 15 16 16 17 14 10 7 1 0 3 4 4 4 3 3 3 3 2 3 5 7 1 6 6 1 1 5 4 7 8 10 6 6 7 8 9 9 9 9 9 9 7 9 8 9
21 22 21 21 21 21 22 22 23 25 23 23 27 28 41 47 47 47 49 49 45 49 45 34 31 21 7 2 8 15 18 19 23 26 25 26 25 19 18 19 16 14 15 14 16 15 12 9 5 2 2 2 4 5 4 4 4 2 1 3 3 3 4 4 2 4 3 1 0 3 3 4 6 6 4 6 9 8 8 8 10 9 9 9 7 8 8 7
22 23 23 22 22 22 23 23 23 24 23 25 28 28 36 41 44 44 48 50 45 47 38 25 27 18 4 4 11 14 13 15 23 26 23 23 24 26 23 17 15 17 17 14 13 9 5 4 2 1 2 3 5 5 3 3 6 4 2 3 4 4 4 3 3 2 0 1 3 4 4 6 7 5 4 5 9 8 9 9 9 9 8 8 7 7 7 8
22 25 24 23 24 24 23 24 24 22 23 30 31 31 37 36 41 41 42 46 36 32 24 15 21 12 1 7 10 13 17 20 26 26 24 22 25 28 21 14 14 17 15 8 5 3 3 3 1 3 3 3 6 7 8 9 10 8 4 3 4 5 5 4 3 3 3 2 4 6 5 10 12 8 4 4 6 8 10 9 8 8 8 8 7 7 8 9
23 25 26 25 26 27 25 25 26 23 23 32 35 32 36 31 31 29 28 39 26 12 10 11 15 5 3 11 10 15 22 26 27 23 24 25 26 24 18 18 16 12 9 3 2 2 1 3 2 4 7 10 12 15 12 4 6 8 4 2 4 5 6 5 4 4 6 5 5 7 7 11 14 11 6 3 4 6 7 6 6 7 7 7 7 7 9 9
24 26 27 26 28 29 28 26 26 26 25 31 32 23 21 16 11 7 9 22 14 3 8 13 11 4 8 12 14 20 22 24 22 17 25 27 25 22 14 13 10 4 6 6 5 3 2 4 6 10 12 13 13 12 9 2 1 3 1 3 5 5 6 5 5 5 2 5 7 9 9 11 13 12 6 3 4 4 8 8 8 7 7 7 8 9 10 11
26 27 28 28 29 31 31 30 28 29 27 30 31 14 8 11 8 4 4 5 2 4 11 12 7 5 10 17 23 27 17 13 12 13 27 28 23 19 8 7 8 3 4 6 6 3 1 7 11 11 8 8 9 9 10 7 5 4 2 4 6 5 6 6 4 4 1 4 6 6 8 11 13 11 4 5 6 8 11 12 11 10 9 8 9 11 11 10
28 28 30 29 30 32 32 33 31 30 29 31 30 12 7 14 10 9 9 6 5 5 12 12 10 9 11 19 29 31 17 8 9 10 22 24 16 12 5 6 8 5 6 8 6 3 4 8 7 5 7 8 9 10 12 11 7 5 4 4 5 3 4 6 3 3 2 3 4 4 6 10 13 10 4 6 7 9 10 10 10 10 9 9 10 11 11 10
29 30 32 30 31 32 33 35 32 29 30 30 25 13 14 17 14 16 12 7 3 5 7 6 10 13 11 12 20 26 18 12 12 11 18 18 10 8 8 8 8 7 8 9 8 7 6 5 4 8 9 11 10 10 12 8 5 5 4 4 6 3 1 4 3 1 1 1 1 4 4 7 10 8 5 7 8 7 6 7 8 8 9 11 10 9 10 11
32 32 33 33 32 32 33 33 28 28 31 31 26 22 27 24 23 27 12 5 3 4 4 1 5 12 11 9 13 16 11 9 12 15 20 17 8 6 7 8 9 8 8 10 10 8 3 1 4 8 9 12 12 11 12 8 6 7 8 7 7 6 5 4 4 1 1 2 1 4 1 6 7 7 7 7 6 6 5 7 8 9 10 9 7 8 9 10
35 35 36 36 33 33 32 24 23 31 31 26 27 30 34 32 33 31 11 4 3 3 2 1 2 4 7 10 9 8 8 6 6 14 20 16 10 8 5 4 5 7 9 10 8 5 2 1 6 9 8 10 11 11 11 10 6 7 10 10 9 9 8 6 4 1 2 3 3 4 3 6 5 6 9 6 4 6 6 7 10 11 9 8 8 11 10 9
38 39 39 39 37 33 23 14 23 33 23 19 29 36 38 39 38 26 7 4 2 1 4 4 1 5 7 6 5 8 10 4 3 13 17 13 9 6 5 3 1 4 9 8 4 2 2 4 7 10 9 9 9 9 12 12 7 6 7 9 11 10 8 6 5 4 4 5 4 2 5 6 6 5 9 7 7 10 7 6 10 11 8 8 10 11 10 9
41 42 42 42 39 31 19 14 24 25 14 16 33 41 42 44 35 13 2 3 4 4 6 2 1 7 8 3 4 10 9 4 7 11 11 11 8 3 4 6 3 3 5 4 1 1 5 6 6 9 10 9 9 9 12 13 9 5 3 5 9 10 10 8 5 5 4 2 3 1 4 4 5 6 6 3 5 10 9 8 10 10 10 10 12 12 11 11
44 46 45 43 39 37 32 22 18 19 18 24 38 43 44 46 30 7 2 5 5 4 5 1 2 7 7 5 5 3 5 11 12 9 9 11 7 2 3 5 6 8 7 5 4 2 6 9 9 10 9 9 9 7 10 13 8 4 0 2 5 7 9 7 6 6 3 0 4 3 3 3 6 6 4 1 5 9 10 11 12 13 13 13 13 12 11 11
47 47 47 44 39 42 43 29 18 22 29 34 44 44 42 38 20 3 2 4 2 4 4 4 5 7 9 9 6 4 5 8 6 7 9 8 3 2 4 5 8 11 7 4 4 3 3 8 11 11 9 8 6 6 10 14 8 4 1 2 2 3 1 1 4 4 1 3 8 7 6 5 5 5 3 1 4 7 8 9 11 13 14 13 13 13 11 9
50 49 50 45 37 39 39 31 28 28 30 39 47 43 33 22 11 5 5 4 3 4 4 4 5 8 15 12 5 2 7 4 3 10 7 3 3 2 3 5 7 7 4 1 2 3 1 3 8 8 6 5 6 6 9 10 5 1 2 3 5 4 4 3 0 2 2 6 9 8 9 7 6 5 5 5 5 8 8 7 9 10 11 11 11 11 10 8
52 53 52 45 41 39 27 23 34 31 32 45 47 36 20 7 4 6 6 3 4 4 5 6 7 12 18 17 7 5 7 4 5 13 8 3 6 4 4 5 4 4 2 1 2 2 2 3 4 4 3 5 6 6 7 4 2 1 0 2 3 3 2 3 2 1 5 8 7 5 6 7 7 5 4 7 6 7 8 8 10 10 9 9 9 9 8 8
57 56 54 49 47 43 29 28 39 35 40 52 40 20 9 4 3 4 4 4 4 6 7 10 13 15 18 16 10 9 10 6 8 13 12 9 8 7 7 6 5 4 2 4 2 0 1 2 3 3 3 6 7 6 5 3 3 3 3 4 3 1 1 2 2 3 6 6 3 1 3 4 7 7 6 8 8 8 9 8 9 9 8 8 8 8 7 6
61 57 55 54 50 45 41 40 40 39 47 46 27 8 5 6 5 3 6 5 5 7 8 11 15 16 17 14 10 10 9 7 11 12 10 10 8 6 3 5 8 4 2 7 5 2 2 3 3 5 2 5 10 9 7 7 7 8 7 6 6 5 5 6 5 2 4 4 3 1 2 3 4 5 9 11 10 8 8 8 8 7 8 9 8 6 6 5
64 59 54 54 51 47 44 38 39 49 49 30 14 10 8 6 2 4 8 5 5 9 9 12 17 16 13 9 9 11 6 4 12 12 9 8 8 7 5 7 11 5 4 7 4 4 6 3 6 9 4 6 10 9 7 6 5 7 6 4 5 4 5 6 4 4 4 3 3 2 2 4 3 4 8 10 7 5 5 6 7 7 8 7 6 5 5 5
65 60 53 49 48 47 42 38 44 54 43 18 9 11 10 5 3 5 8 7 8 10 11 15 19 15 9 6 9 8 2 3 11 10 10 10 9 10 7 8 13 8 7 7 3 5 6 3 2 3 4 10 10 4 4 5 3 4 4 4 6 5 4 2 3 5 4 1 1 2 3 4 4 5 6 3 5 6 5 5 5 6 7 4 5 5 5 5
60 54 47 41 41 44 43 43 51 51 32 13 9 9 8 5 5 7 9 11 13 17 19 16 14 11 6 5 8 6 2 5 12 9 8 9 8 10 8 6 11 11 8 7 3 4 5 2 1 3 2 7 9 6 4 4 4 3 4 6 5 2 5 2 2 1 3 2 3 2 3 5 3 6 6 4 4 6 6 6 5 6 5 3 5 5 5 5
48 41 33 31 39 46 47 48 51 41 21 12 11 10 7 4 5 10 12 14 18 22 21 14 10 11 10 8 7 8 6 8 11 8 6 7 5 9 11 7 11 14 9 6 2 2 5 1 1 4 4 3 3 6 3 2 3 4 5 7 1 2 2 2 2 1 2 3 4 1 4 4 2 4 5 4 3 8 8 7 6 6 5 5 6 5 5 5
38 30 20 26 43 47 49 54 46 25 11 11 14 10 5 2 5 10 12 16 19 20 17 10 8 10 13 14 11 13 15 12 11 8 7 8 5 9 14 8 10 15 11 7 3 2 5 3 3 2 6 3 3 5 3 3 2 3 3 3 3 3 4 2 3 2 1 4 4 2 3 3 5 5 3 3 7 9 9 7 6 7 7 7 6 6 6 5
30 20 10 27 48 47 53 54 33 13 8 11 13 7 3 3 7 12 16 19 18 16 14 11 9 9 11 15 15 16 16 14 15 12 8 9 5 8 17 10 8 15 13 8 5 3 4 4 1 2 2 3 2 2 6 4 2 1 1 2 2 3 4 3 3 2 3 4 2 3 3 3 6 6 5 7 10 10 9 6 7 9 9 7 7 7 6 5
17 11 7 30 50 48 54 45 18 10 9 10 11 6 4 6 8 15 20 22 16 9 11 15 14 12 11 13 14 14 11 11 16 13 7 9 4 5 15 13 10 14 14 9 6 4 4 3 2 1 1 2 2 3 6 6 4 3 3 4 4 4 2 2 1 2 3 3 3 2 2 5 6 5 8 11 10 9 8 7 8 9 8 8 8 7 6 5
11 10 6 32 53 48 44 25 9 11 8 8 10 5 7 8 9 17 19 18 12 1 5 15 15 13 14 14 13 12 9 9 13 10 4 8 7 4 10 14 12 12 11 9 8 5 3 3 4 3 2 4 3 1 4 6 6 5 5 5 5 5 3 3 4 2 2 2 4 4 2 7 6 4 9 11 6 4 5 6 7 8 8 8 7 7 6 6
11 8 9 36 56 46 28 9 5 12 6 7 8 4 8 10 11 18 17 13 8 2 4 9 11 11 11 13 15 12 10 10 12 12 7 10 12 6 8 14 16 14 11 9 9 5 2 4 4 2 4 5 3 1 2 3 3 3 4 4 4 4 5 6 7 3 1 1 1 3 1 6 6 4 6 7 4 3 5 5 6 7 7 7 6 6 6 5
8 7 16 42 57 40 17 7 9 10 5 5 5 4 8 9 12 17 15 12 6 4 7 7 8 11 8 10 13 12 10 8 9 12 6 6 8 6 10 17 19 18 13 9 9 6 2 4 4 1 1 2 3 2 2 2 2 2 4 3 4 4 3 5 5 3 3 2 2 2 3 6 6 4 4 6 5 5 6 5 7 7 5 6 7 6 6 6
6 7 12 34 52 36 12 8 11 8 6 6 5 5 4 5 13 17 16 15 8 6 11 10 11 13 10 13 15 16 14 7 7 10 4 5 7 5 12 20 20 18 13 10 10 7 4 4 4 4 2 1 2 3 4 4 3 3 3 2 3 3 4 2 2 2 3 4 5 5 5 6 6 5 3 4 5 6 7 6 6 7 5 5 5 5 5 5
7 6 5 16 32 25 7 6 11 10 11 10 8 9 7 6 13 17 18 14 5 6 10 8 11 11 11 15 15 15 15 6 6 9 3 5 6 3 11 21 21 18 11 10 12 8 5 5 5 7 7 8 9 8 7 5 2 1 2 1 3 4 5 3 2 3 5 4 4 5 5 6 6 6 5 6 5 6 7 5 4 6 5 5 5 5 5 5
8 5 6 8 11 12 3 2 8 11 14 14 9 9 11 10 10 12 16 10 1 5 6 4 9 9 9 15 12 12 13 2 3 9 7 9 7 2 8 17 19 15 11 13 14 8 3 4 7 10 10 9 8 4 4 7 5 7 6 5 5 6 6 4 2 4 5 2 2 5 5 4 7 7 7 7 5 6 7 5 4 5 4 4 5 5 5 5
6 5 8 7 6 8 4 3 8 9 13 16 10 8 14 15 10 8 10 6 4 8 6 4 10 10 11 17 12 11 13 2 4 12 14 11 6 2 4 10 13 13 13 14 13 8 4 5 9 11 9 7 6 4 7 10 10 12 10 8 8 7 7 7 8 9 5 4 7 7 5 5 8 8 8 8 7 6 6 6 6 4 4 4 5 5 5 6
3 5 7 6 4 7 7 7 9 8 12 13 7 8 15 16 15 12 7 3 5 10 7 5 12 16 19 21 15 12 13 5 5 12 12 8 6 6 5 5 7 10 13 12 10 7 5 6 8 9 8 7 6 7 11 12 11 12 12 12 10 8 9 12 14 12 8 7 11 7 8 10 8 7 11 9 6 5 5 6 4 3 4 4 5 6 7 7
2 4 4 3 3 8 12 14 13 11 13 10 5 8 15 18 19 14 5 5 8 11 11 11 17 21 23 23 17 14 15 12 9 12 13 12 12 11 9 6 4 5 9 10 6 3 4 4 5 8 7 6 5 6 8 9 10 11 14 16 15 14 15 16 16 14 11 13 13 6 9 12 8 8 11 8 3 3 3 2 2 4 5 6 7 7 8 9
3 4 5 5 3 7 11 14 16 14 11 9 7 9 14 19 21 12 4 8 14 14 15 19 23 23 24 24 19 17 23 23 19 18 18 16 14 12 10 7 5 5 6 7 5 2 2 3 3 7 6 4 3 3 5 7 8 9 13 18 20 20 20 18 16 12 10 13 11 7 11 13 7 6 8 6 3 3 3 2 4 5 5 7 7 8 9 10
2 1 4 8 6 6 9 10 13 14 11 9 9 9 12 18 21 14 4 3 10 13 14 19 22 18 17 20 20 21 24 24 21 22 22 20 17 14 10 6 9 10 6 5 5 3 3 2 2 5 5 5 2 4 5 4 2 7 14 17 19 19 18 16 14 12 12 13 10 9 12 10 5 4 6 7 5 4 6 6 5 5 6 8 9 10 11 11
2 2 2 6 7 8 11 10 10 11 11 9 6 6 10 15 16 15 8 1 1 6 8 14 18 13 12 18 20 17 14 10 8 9 11 11 10 8 7 9 16 16 10 6 5 3 6 5 3 5 6 3 1 4 5 5 1 10 14 14 16 15 13 13 12 14 16 13 10 12 11 5 4 6 9 9 6 7 9 8 5 6 7 8 10 11 12 12
Wind_Direction
220 218 218 220 222 228 234 226 221 217 211 204 196 193 193 190 189 189 189 189 188 186 186 187 187 188 187 187 188 188 190 187 180 180 186 200 202 203 208 207 212 210 183 174 100 96 89 84 100 117 120 73 2 341 353 349 41 37 62 121 213 186 194 187 179 195 180 202 207 206 174 156 174 187 175 73 62 54 77 344 313 335 358 189 201 156 162 165
220 218 223 226 225 228 232 229 225 221 216 209 197 191 191 190 189 189 188 188 187 186 186 186 187 188 187 186 183 182 183 182 178 186 196 198 200 199 198 194 202 210 203 189 97 86 84 69 85 95 87 33 345 2 13 333 19 81 118 130 228 197 209 200 174 184 192 198 190 199 184 172 181 169 154 145 168 169 145 294 326 353 17 116 147 149 157 162
222 216 220 225 225 224 228 231 233 231 221 215 203 192 190 190 188 188 187 187 186 185 185 185 187 186 186 182 178 178 173 168 175 203 202 196 199 198 196 191 194 202 208 194 107 84 95 126 89 80 68 33 13 1 48 339 318 150 137 253 246 212 239 242 190 200 211 172 166 204 187 181 193 157 152 161 172 204 196 210 207 196 189 138 147 150 155 162
228 218 211 217 223 221 227 230 231 239 228 218 206 191 188 189 187 187 186 186 185 185 184 185 187 185 184 178 174 174 157 134 209 208 201 196 200 199 199 197 190 195 203 189 131 94 93 103 83 69 67 62 351 339 65 300 290 176 154 215 243 192 242 254 210 217 223 174 166 185 141 177 205 151 151 145 152 231 234 215 201 189 175 157 157 155 158 164
227 222 207 208 217 218 224 227 226 241 235 221 208 190 185 186 186 186 184 184 184 183 184 183 185 184 182 177 173 165 139 98 224 197 200 197 197 199 198 198 193 192 193 178 150 112 88 80 80 67 57 80 335 0 25 293 56 282 242 222 214 149 237 255 211 224 217 165 142 148 162 177 173 143 164 157 171 223 226 213 210 187 165 162 163 159 162 167
225 221 212 206 214 218 219 222 225 238 235 221 208 190 186 185 183 184 183 183 183 183 183 182 183 182 179 174 170 163 151 179 228 186 195 195 194 196 195 195 194 193 186 162 142 118 87 56 74 103 84 81 284 130 233 307 38 291 283 286 252 185 243 263 192 238 175 144 159 174 196 150 138 184 182 176 196 233 260 209 189 186 173 165 160 161 166 172
229 221 216 207 212 219 222 224 226 235 236 225 210 190 185 185 182 182 183 182 183 183 182 182 181 179 174 166 164 168 179 219 7 177 185 188 191 189 188 187 189 193 182 150 130 114 97 70 96 120 109 117 190 170 322 318 144 216 268 301 286 215 233 256 317 271 176 175 193 165 144 159 169 188 159 195 220 276 308 201 153 166 168 162 160 166 173 177
232 226 220 213 210 216 222 227 230 235 239 232 215 191 181 183 182 182 183 183 182 182 182 181 179 176 169 161 157 166 203 218 144 173 176 179 184 181 181 178 181 191 180 158 144 131 119 112 136 135 115 134 151 131 342 339 107 202 271 296 303 251 247 269 302 291 196 195 180 125 158 193 190 167 149 207 232 281 316 132 132 145 156 167 172 174 176 178
233 231 225 225 214 210 216 223 229 235 240 236 214 192 181 181 182 181 182 182 181 182 181 180 177 174 170 160 150 163 196 199 153 170 176 174 177 177 180 174 173 181 167 162 161 146 142 142 171 181 129 129 119 87 347 335 118 335 309 306 306 291 292 308 304 295 214 191 140 148 187 222 220 148 203 220 218 228 122 130 135 145 160 179 182 179 178 180
232 233 231 229 220 211 213 219 226 233 240 243 217 192 184 182 181 181 181 181 181 181 179 179 176 171 169 158 151 177 190 181 160 170 179 177 173 172 177 173 170 171 156 152 162 156 157 154 159 177 121 101 104 83 10 298 323 325 319 306 294 280 288 329 294 296 311 212 168 166 187 243 312 55 236 234 184 138 126 136 152 157 172 184 186 189 184 186
234 234 235 231 226 217 214 219 224 231 236 246 234 197 185 183 182 180 181 181 181 180 179 178 174 170 167 158 164 184 179 171 167 172 179 180 175 172 176 174 169 167 156 146 162 168 160 148 148 159 122 107 109 82 30 327 331 317 321 316 304 295 285 264 257 277 335 214 173 144 153 265 342 237 229 230 161 144 140 151 171 172 180 187 188 195 191 195
237 236 238 232 232 221 215 221 223 232 234 245 247 202 183 181 181 179 180 180 180 180 179 176 174 169 161 161 181 172 169 169 169 174 177 175 171 170 173 172 170 167 161 147 153 171 161 153 142 103 160 142 119 85 303 323 322 306 329 321 309 329 301 243 224 258 162 190 185 135 120 279 244 229 241 228 150 137 144 163 179 186 187 188 191 196 201 204
239 239 242 234 236 228 219 220 220 230 231 240 245 198 179 178 179 179 178 178 180 179 178 175 171 167 157 158 176 150 160 166 169 171 169 169 165 161 164 167 167 165 168 157 148 159 159 157 139 106 145 128 121 200 272 326 323 319 340 302 300 335 305 248 185 215 168 178 207 152 191 257 234 237 244 195 147 130 147 179 183 191 192 189 194 198 208 206
241 241 242 237 237 234 225 221 219 226 224 234 241 192 176 178 177 177 178 177 179 178 176 173 168 165 160 144 130 148 159 163 168 165 162 166 155 143 153 160 159 156 162 156 148 154 158 155 129 108 129 99 125 156 11 358 3 341 316 288 288 269 275 285 213 166 171 191 199 140 203 250 243 245 232 181 163 149 164 191 191 195 196 195 198 201 210 208
243 242 241 239 237 234 229 223 218 225 223 228 237 195 175 179 178 176 178 176 177 177 173 170 168 161 147 79 145 151 157 160 164 162 164 167 151 137 147 146 144 144 146 143 140 147 154 149 122 102 192 357 74 76 30 356 6 350 291 293 312 207 262 301 271 172 177 230 72 138 202 260 257 253 233 178 172 172 178 191 197 200 200 200 203 205 212 214
242 241 241 237 235 234 228 225 219 221 223 223 231 203 179 183 181 175 176 176 177 175 168 167 171 163 140 154 152 151 155 160 165 162 164 166 153 136 132 125 115 121 125 122 124 131 137 134 112 84 126 94 73 81 50 352 329 333 228 267 278 212 250 301 281 210 192 152 101 181 214 257 261 273 276 187 175 183 191 198 203 205 208 205 207 210 212 217
243 239 240 235 232 232 226 226 220 216 219 220 225 207 184 185 183 176 175 176 175 170 165 165 164 156 112 132 152 162 160 158 164 160 157 163 153 136 127 115 103 110 107 102 110 109 86 80 121 110 65 92 110 102 98 227 241 251 214 250 264 221 224 259 273 268 183 137 198 221 235 241 254 292 312 214 182 183 199 208 207 207 214 211 211 217 216 219
244 239 238 234 231 228 225 226 219 216 215 215 223 205 186 186 187 185 173 163 161 158 157 158 152 145 235 182 167 163 159 155 158 156 153 159 153 142 132 123 122 116 104 92 92 69 23 31 114 120 84 135 145 158 192 207 205 203 201 227 263 257 238 232 243 211 157 153 199 201 237 253 262 280 288 233 193 192 205 208 207 211 216 215 214 217 219 222
244 241 236 233 232 227 225 224 217 216 210 211 222 204 179 176 186 194 169 150 148 149 151 161 163 157 174 175 157 143 154 154 151 151 150 150 148 140 127 129 131 121 120 123 96 122 131 79 88 153 177 187 182 188 195 175 153 170 183 224 241 259 254 231 246 238 172 164 208 201 220 242 250 258 253 215 190 209 230 229 222 219 218 222 220 221 224 223
242 241 236 231 232 229 226 223 216 214 212 210 216 199 165 162 171 209 180 152 155 165 146 158 166 119 106 136 131 129 144 147 142 149 153 152 143 129 124 132 122 109 142 145 142 154 150 145 185 200 199 195 188 188 179 124 91 171 197 272 263 259 263 246 242 274 181 166 220 209 217 238 241 248 242 163 156 216 244 235 228 224 218 222 222 226 226 225
241 238 235 231 230 231 227 223 218 213 216 211 202 186 151 168 156 164 181 125 62 103 129 136 123 89 120 136 136 132 131 134 132 149 156 155 141 130 142 151 129 137 144 121 119 96 145 193 209 205 187 178 176 165 162 190 247 274 264 270 281 256 260 264 239 294 9 175 232 212 218 245 247 249 236 139 162 213 225 221 223 220 218 222 223 228 229 233
244 237 234 231 228 232 229 224 222 215 220 214 199 192 175 172 157 156 147 76 13 82 116 126 107 93 117 134 143 139 127 123 132 156 163 158 149 147 166 161 147 148 130 115 111 116 193 214 208 162 130 142 163 160 161 188 225 266 275 262 271 259 271 280 267 335 21 188 246 208 208 246 253 251 222 173 198 225 223 219 227 221 220 224 221 226 229 236
245 238 233 230 227 231 230 226 225 218 222 217 204 196 178 175 163 152 132 87 54 42 79 124 118 120 125 132 150 145 133 141 151 169 176 166 161 161 152 154 146 130 145 156 157 163 191 224 150 129 141 148 159 165 160 176 216 237 253 245 254 253 240 265 263 325 52 115 220 174 203 253 259 262 245 214 218 239 232 220 235 229 225 230 228 233 231 229
244 239 233 228 225 230 230 229 228 223 225 220 213 198 177 173 163 149 126 70 111 35 25 22 97 129 134 127 152 153 135 139 149 163 177 170 154 150 149 149 138 135 169 176 171 167 162 255 127 125 152 160 161 166 165 179 211 227 237 235 244 244 226 244 269 273 69 350 113 133 253 275 250 251 257 235 218 245 241 217 237 238 229 239 255 257 239 228
243 239 234 227 224 227 227 227 229 225 225 221 213 197 178 171 164 153 128 48 119 30 340 295 39 136 122 108 132 142 112 103 136 157 172 170 149 145 147 135 132 154 174 166 168 175 151 189 135 124 151 167 166 174 177 180 193 229 238 231 234 242 238 240 257 187 122 256 239 139 227 269 269 251 247 240 220 239 231 209 234 241 231 230 244 247 238 232
244 239 233 228 224 222 219 224 230 222 220 221 204 188 176 168 164 161 130 62 146 154 166 181 200 155 137 112 118 119 107 70 121 147 161 168 157 144 138 137 99 152 165 156 155 183 157 162 147 146 160 163 171 190 186 174 183 223 218 209 221 232 236 230 219 190 176 235 261 152 200 255 305 265 236 234 229 237 229 215 237 244 236 225 229 238 234 232
244 238 230 227 222 212 205 218 223 213 211 215 191 174 168 163 163 176 167 141 189 165 147 170 286 147 150 164 147 138 140 131 128 148 168 168 160 132 133 150 115 119 150 134 148 219 140 147 163 163 159 165 187 201 186 173 182 214 166 175 216 221 224 216 191 210 225 247 283 185 170 235 272 253 252 245 225 245 248 240 248 247 239 234 233 234 228 227
242 236 229 225 219 211 212 213 203 204 214 196 172 162 159 159 163 196 224 175 173 137 128 104 94 120 124 105 87 100 151 139 137 165 181 163 154 82 122 154 130 137 154 147 173 196 139 160 176 167 167 189 198 180 167 173 193 256 306 173 234 231 224 210 190 222 252 237 250 234 158 209 253 264 306 359 205 242 250 240 244 242 236 235 235 235 228 227
236 232 227 220 217 217 217 214 203 212 211 181 160 158 155 152 156 185 213 195 148 120 126 123 120 116 122 111 67 34 128 130 132 148 155 161 162 74 125 145 123 138 166 176 170 179 179 182 170 164 186 201 175 141 162 182 203 279 318 105 9 350 313 178 190 200 139 215 235 219 182 207 262 266 267 249 214 234 243 238 238 238 237 236 235 235 230 227
230 228 225 215 212 215 211 214 221 217 200 172 156 153 149 144 156 183 196 189 121 126 134 139 151 142 140 129 67 69 125 105 111 127 130 159 148 92 98 113 107 127 169 274 207 204 221 157 157 169 197 178 140 150 176 193 205 347 36 72 32 9 31 38 114 127 142 234 238 217 189 198 251 261 218 213 214 207 218 240 245 245 245 241 238 236 230 223
227 226 222 212 207 206 198 209 220 211 183 166 153 147 146 138 172 184 195 173 113 136 140 130 140 144 147 142 126 138 127 91 136 140 143 146 140 138 122 124 107 98 128 218 257 254 87 123 167 168 147 115 120 172 187 204 245 348 29 103 52 354 18 17 352 151 209 235 252 234 177 185 234 252 222 227 237 215 209 226 239 245 251 249 246 240 229 219
225 224 218 211 206 203 200 204 208 195 170 161 151 146 150 148 200 180 165 171 156 168 159 140 147 152 151 143 134 146 137 128 159 157 156 153 157 169 162 164 153 115 159 187 177 62 131 212 205 138 138 139 141 172 183 197 209 187 200 186 174 190 161 220 227 205 226 244 283 263 159 198 238 245 247 250 254 239 218 219 234 243 253 257 254 244 230 217
221 218 213 209 204 202 205 204 195 178 165 160 153 147 154 169 205 143 137 175 170 158 152 139 145 148 143 135 136 143 133 145 168 164 157 152 157 179 188 167 160 144 158 164 150 129 171 272 216 160 170 167 165 175 181 196 200 189 199 200 188 171 169 202 214 225 248 260 306 294 188 249 273 261 247 240 241 237 221 228 241 244 252 262 267 255 233 221
214 208 205 203 202 203 202 198 187 170 162 161 154 154 173 184 178 126 148 173 132 124 129 130 136 139 133 126 146 148 122 156 170 158 154 153 159 185 207 182 173 149 107 149 171 171 169 232 200 177 170 170 183 195 178 161 175 194 199 193 203 195 176 197 208 212 231 256 299 294 192 201 211 248 242 231 253 269 236 246 254 249 255 265 273 254 217 214
204 199 197 196 199 202 195 189 183 169 159 160 162 164 181 173 128 152 157 151 128 115 119 129 134 136 127 115 155 165 89 164 171 159 163 174 179 185 188 183 179 160 137 162 184 176 184 243 212 164 150 165 176 192 151 136 161 195 171 177 224 212 157 156 193 185 177 164 263 236 222 215 213 268 280 268 293 292 263 272 270 255 268 272 254 236 206 208
190 189 190 190 192 193 189 183 179 171 161 158 165 175 184 167 160 171 157 152 148 135 132 135 136 136 128 126 163 184 23 134 162 164 175 182 187 188 183 177 179 174 164 159 141 163 186 260 1 68 91 176 174 160 159 183 181 153 173 205 227 159 117 112 222 160 102 191 240 195 237 290 298 281 306 353 314 289 275 278 268 259 278 271 239 227 207 209
176 178 181 186 185 184 184 179 175 173 167 158 173 184 177 174 171 160 154 153 146 140 139 142 152 152 144 146 173 179 135 126 157 169 175 179 195 195 188 185 180 182 181 159 136 180 156 88 285 153 166 212 157 131 148 237 171 142 198 210 154 89 124 117 207 349 62 218 267 197 219 268 243 251 319 357 285 273 264 256 267 273 259 240 236 223 213 217
162 166 171 182 180 178 178 175 173 173 162 162 179 182 158 154 156 144 144 144 141 144 144 144 161 162 157 159 170 175 157 145 164 172 167 182 217 195 183 191 184 182 187 168 161 213 148 101 329 193 177 191 60 111 159 251 213 168 205 185 124 206 231 187 182 207 184 222 287 306 254 253 206 220 287 247 228 247 248 235 246 255 234 226 236 229 227 226
152 160 171 177 175 176 174 172 172 169 166 174 179 183 158 123 142 147 146 146 148 151 151 153 157 161 171 165 159 168 168 160 163 165 172 187 222 198 180 179 179 179 183 173 168 201 157 129 302 273 183 155 96 169 186 197 203 154 190 179 165 204 212 204 191 168 186 214 265 290 283 265 227 218 218 226 229 228 224 215 225 235 226 216 219 216 216 211
148 157 164 169 171 173 169 168 173 173 178 184 174 171 156 132 144 158 156 154 156 158 161 162 157 156 167 161 155 165 170 163 164 165 179 179 185 208 183 172 169 172 173 176 182 188 164 139 164 273 11 159 184 203 184 177 177 182 190 188 195 208 216 254 224 125 141 180 197 214 253 262 248 214 206 229 238 221 206 208 224 233 226 217 214 210 207 201
149 151 151 165 168 168 165 167 181 173 181 190 176 161 146 137 137 156 163 161 156 115 149 156 157 157 156 155 162 170 160 157 169 168 167 176 177 213 189 171 160 155 157 178 196 192 171 148 147 152 177 188 215 231 175 180 177 178 200 199 192 195 196 238 245 207 115 161 177 170 232 268 258 210 211 229 239 218 208 213 230 240 229 221 217 210 204 196
154 150 144 162 165 164 163 172 174 169 187 188 174 136 133 136 138 155 167 169 157 65 104 140 148 148 152 159 163 168 160 156 174 176 173 186 187 194 179 160 151 152 159 179 196 193 141 116 125 160 199 202 234 247 152 164 151 159 216 213 180 177 183 210 230 234 193 218 137 130 208 270 263 229 227 247 270 262 240 226 237 247 234 223 217 207 202 200
148 128 137 158 163 162 164 178 165 168 186 163 140 118 129 137 146 155 163 169 170 139 131 137 146 149 163 167 155 160 163 152 179 183 162 168 188 192 170 155 150 161 171 176 185 184 135 115 113 89 315 315 309 312 82 88 115 193 236 205 176 191 183 196 208 190 201 205 128 158 250 269 273 268 243 253 272 276 267 244 237 249 243 220 211 200 195 196
125 107 129 159 165 166 170 179 165 158 153 128 104 116 107 126 151 157 167 174 178 158 150 156 166 164 167 164 160 168 167 152 187 191 154 148 183 186 167 160 159 169 180 180 175 176 179 161 130 108 74 356 294 271 240 214 190 203 231 214 195 172 111 120 178 151 229 225 175 195 241 251 268 309 311 277 287 282 268 247 230 237 234 216 206 193 191 187
125 106 115 160 169 172 188 188 162 149 145 136 132 141 126 135 164 167 168 170 168 150 152 156 162 155 152 160 165 173 172 160 172 179 147 150 173 183 172 171 172 177 180 168 161 167 185 178 153 156 175 191 200 216 215 194 173 201 200 190 204 181 161 178 184 188 237 240 177 189 229 256 283 309 305 293 300 281 275 279 254 234 218 202 194 186 187 184
139 125 137 153 173 178 208 217 164 156 151 142 140 153 143 145 174 174 162 164 157 128 121 115 133 118 137 158 157 171 182 167 121 162 162 160 167 210 187 179 179 177 160 148 153 151 149 183 189 188 193 190 186 200 156 130 155 210 204 185 190 194 188 172 156 215 217 187 208 218 206 243 279 278 270 281 282 263 271 285 265 238 211 193 187 182 184 188
140 146 154 150 163 166 159 178 170 164 158 149 145 164 158 151 160 172 173 190 178 139 101 90 141 140 154 162 157 174 182 116 88 164 168 163 152 101 154 173 179 172 152 152 163 152 132 199 199 190 199 186 152 151 149 148 183 207 199 197 201 188 178 184 213 220 174 150 246 239 180 204 253 258 257 263 254 247 262 262 246 225 195 181 165 163 181 193
129 137 155 154 150 150 146 162 168 162 160 154 135 148 155 152 157 170 188 203 161 153 130 124 165 168 167 167 163 169 172 149 143 167 164 156 142 120 129 168 190 174 157 164 178 161 160 206 191 174 198 201 166 165 167 169 192 201 196 205 209 196 191 206 225 219 178 202 241 223 182 207 229 246 254 254 239 237 263 268 247 180 160 163 161 172 189 198
122 102 127 130 130 149 150 155 158 157 161 156 122 144 156 160 167 170 162 143 162 171 159 161 180 178 172 172 167 163 172 173 174 179 172 165 163 153 150 168 203 184 161 166 183 172 171 195 172 161 184 208 201 188 183 184 192 197 202 206 205 207 210 216 229 226 212 231 244 230 222 231 222 229 249 264 276 248 255 271 159 156 165 174 181 192 202 206
153 137 132 118 112 143 150 156 159 158 166 171 162 161 162 166 171 169 145 160 172 178 175 175 181 180 175 175 172 175 184 180 176 178 170 162 165 167 168 172 163 146 146 153 167 196 181 185 154 140 161 218 223 183 203 211 203 203 212 211 208 210 214 220 229 230 229 241 248 252 257 254 241 238 256 272 293 273 261 227 182 182 182 180 193 209 212 215
119 140 145 137 133 141 148 160 162 157 168 183 174 163 167 172 172 163 147 187 175 178 185 178 173 172 173 179 185 190 192 185 177 174 168 165 171 173 174 168 147 142 137 139 148 134 128 153 104 116 161 228 211 162 197 206 230 248 236 223 214 211 214 220 221 218 224 234 236 242 254 255 243 252 261 255 246 250 260 242 204 197 190 186 201 214 216 219
99 24 98 127 133 152 156 157 163 166 173 178 163 155 168 173 169 160 152 354 156 168 168 155 154 156 170 190 200 195 182 170 154 154 157 154 150 139 132 144 150 151 151 146 141 129 133 137 121 139 175 230 182 153 153 107 34 262 241 216 210 216 219 224 226 223 222 221 219 232 241 224 190 216 235 238 221 221 243 235 199 201 203 201 212 217 219 222
Height
725 727 729 730 731 733 734 737 739 742 745 746 747 750 754 758 761 764 768 770 773 776 779 781 784 787 789 792 794 796 799 800 802 803 803 803 804 806 808 808 812 813 812 813 813 812 814 816 817 818 818 822 827 827 827 825 827 829 837 844 845 848 845 836 837 838 834 831 830 831 830 832 834 835 834 834 837 839 840 839 838 837 835 835 834 835 838 843
724 726 727 728 729 731 733 735 737 740 742 744 746 747 752 756 759 762 766 770 772 775 778 780 783 786 788 791 793 796 798 800 802 802 801 803 804 806 808 809 812 814 813 814 813 812 815 818 817 817 820 827 830 829 830 829 829 834 843 847 843 842 836 829 829 831 832 829 828 830 831 831 831 832 833 836 841 842 841 841 840 838 836 836 835 836 839 842
723 724 725 725 726 728 731 734 736 737 739 742 744 745 750 754 757 760 765 768 771 774 776 779 782 785 788 790 793 796 798 801 803 801 800 802 804 805 808 809 811 813 813 814 813 813 816 818 817 817 823 831 834 833 833 833 833 835 841 844 838 834 832 829 828 827 829 828 828 830 831 831 829 830 832 835 841 842 840 839 839 837 837 837 836 837 839 842
722 722 722 722 725 727 729 732 734 735 737 739 741 742 746 751 755 759 762 766 769 773 775 778 781 784 787 789 793 795 798 804 803 798 799 801 803 805 807 808 810 812 813 814 814 814 816 818 818 819 827 837 839 836 836 836 836 836 838 840 834 834 832 826 825 825 827 829 829 830 832 832 830 830 831 834 841 842 837 833 832 832 834 836 836 837 839 842
720 720 720 721 724 726 727 730 732 732 734 738 740 740 742 747 752 757 760 764 768 771 774 777 780 783 787 789 793 794 799 809 801 793 798 800 802 804 806 808 810 812 813 813 814 816 818 819 819 825 834 841 843 839 838 836 835 837 835 833 832 835 832 825 825 827 827 829 829 832 831 828 829 830 830 832 835 833 828 827 828 828 830 831 833 836 838 841
717 718 718 720 723 725 726 728 729 730 732 735 739 739 742 745 749 755 758 761 766 770 774 777 779 783 786 788 792 792 798 804 795 790 796 798 801 803 805 807 809 810 812 813 815 817 819 822 823 830 838 844 844 840 841 838 836 840 836 831 832 833 831 825 826 827 828 828 828 829 827 826 829 829 830 830 827 824 823 823 826 827 828 827 830 833 836 839
715 716 717 719 721 723 725 726 727 729 731 733 736 735 738 744 747 752 757 760 764 769 773 776 779 782 785 788 792 793 795 795 792 792 795 797 800 802 804 806 808 809 811 813 815 818 821 825 827 832 839 845 845 841 841 838 836 841 839 832 831 831 829 826 826 827 827 826 825 826 826 827 827 827 830 829 823 823 824 823 825 828 829 829 831 832 833 836
714 715 716 718 719 721 723 725 726 728 730 731 734 733 734 740 745 749 754 759 762 767 772 775 778 780 783 786 790 796 796 793 792 793 795 797 799 801 804 805 807 809 811 813 814 817 821 826 830 832 839 844 844 842 842 840 837 840 840 834 831 830 827 826 826 826 826 826 826 826 826 826 826 828 829 826 823 824 825 825 826 829 831 832 832 832 833 836
713 714 715 717 718 720 722 723 725 727 729 730 732 734 734 737 742 748 753 757 761 766 770 774 777 780 783 784 789 796 795 791 792 793 795 797 799 801 803 804 806 808 809 812 814 816 821 827 831 830 836 841 841 842 843 841 842 842 841 838 835 831 827 826 825 824 825 825 826 826 826 828 828 830 827 822 823 825 826 827 827 830 832 833 833 833 834 835
712 713 715 716 717 719 721 723 724 726 728 729 731 733 734 737 740 745 751 756 760 764 769 773 776 779 782 784 789 795 791 790 793 793 795 797 799 802 803 804 806 807 809 812 814 817 820 825 830 829 831 837 840 844 845 844 844 842 840 838 835 832 828 827 825 825 826 825 825 825 828 829 829 831 826 820 823 826 827 829 830 831 832 833 833 834 834 835
711 712 713 714 715 718 720 721 722 724 726 727 730 731 732 736 740 744 749 754 759 763 767 771 775 778 781 782 788 792 789 789 792 793 795 798 800 802 803 805 806 806 808 812 815 816 819 823 827 828 830 836 841 844 845 846 844 840 839 836 831 829 828 827 825 826 826 825 825 824 828 830 829 829 823 820 825 825 826 830 832 831 832 833 833 834 835 834
709 710 711 713 714 716 718 719 721 724 726 726 728 728 728 732 738 742 747 752 757 762 766 770 774 777 780 784 787 788 788 789 791 793 796 798 800 802 803 805 806 807 808 812 816 817 820 823 824 829 832 835 841 845 844 845 843 839 839 837 831 829 828 825 824 826 825 825 825 824 831 834 829 825 820 823 826 825 827 830 832 832 832 833 834 835 835 834
707 708 709 711 712 714 716 718 720 723 725 726 726 725 725 730 735 740 745 751 756 760 765 769 774 777 780 786 787 786 788 789 791 793 796 798 801 803 804 806 807 809 810 812 816 819 822 823 824 830 833 836 841 843 842 843 842 839 840 841 838 835 831 824 824 826 825 826 824 825 837 836 826 820 819 825 827 825 829 831 832 833 832 833 834 835 834 834
705 706 708 709 710 713 714 717 719 721 724 726 726 724 724 730 735 739 744 749 754 759 765 769 774 776 780 786 787 787 788 789 791 793 795 798 800 804 806 807 808 810 812 814 817 820 823 825 826 830 835 836 837 839 842 845 846 845 843 842 843 843 834 825 826 827 825 828 824 826 838 833 821 819 819 824 826 824 827 830 832 832 832 833 833 834 833 833
703 704 706 708 709 711 713 715 717 719 722 724 726 725 725 730 735 739 743 748 753 758 764 769 773 775 781 787 786 787 788 790 791 792 794 796 799 804 807 809 810 812 814 816 818 821 824 826 827 833 838 836 835 841 848 850 850 851 850 847 848 847 836 825 825 826 824 827 825 828 837 830 819 817 819 824 827 824 824 828 831 831 831 832 832 832 832 832
702 703 705 706 708 709 711 713 716 718 720 723 726 727 727 731 735 738 742 746 752 757 761 767 770 771 779 786 785 786 788 789 791 792 795 797 798 803 807 810 812 814 816 818 820 822 824 826 830 834 837 837 839 846 855 861 860 857 855 855 851 847 840 829 825 826 824 826 826 828 832 827 818 816 821 824 825 825 824 826 830 830 830 830 831 831 831 831
700 701 703 706 707 708 710 712 715 718 720 723 727 729 729 732 736 738 741 746 751 756 759 762 765 769 779 784 783 783 785 786 790 792 796 798 799 803 806 809 814 816 817 820 822 823 825 828 832 835 836 839 843 850 863 872 869 862 859 858 852 845 842 835 827 826 827 827 827 828 829 824 814 815 822 824 824 825 824 825 828 829 829 829 830 831 831 831
699 700 702 704 705 707 709 711 714 717 720 723 726 730 730 732 736 738 738 742 750 757 762 764 764 769 777 779 777 777 780 784 787 791 795 799 800 803 805 808 813 815 818 823 824 825 829 831 834 836 841 845 844 848 857 854 852 858 859 857 853 844 840 836 827 824 827 828 827 830 832 825 815 815 820 823 825 825 821 822 825 827 828 828 829 829 829 829
698 699 700 702 704 706 708 711 713 716 720 723 725 728 728 733 737 737 733 732 741 748 752 757 758 759 760 764 769 773 777 781 785 791 794 798 801 803 806 809 811 814 819 825 827 828 829 833 838 838 838 838 834 836 841 839 842 851 853 852 850 843 838 833 826 823 825 828 829 830 830 825 817 814 816 821 825 825 823 823 824 825 826 827 828 827 826 827
696 697 699 701 702 704 707 710 712 715 720 722 725 725 723 728 735 738 734 728 731 733 734 741 749 751 751 757 766 771 778 781 784 790 793 796 799 803 808 810 812 816 818 822 828 829 829 833 834 828 825 828 830 833 838 842 845 848 851 853 851 846 839 828 824 824 824 827 828 827 827 823 817 812 814 821 825 826 826 823 821 822 823 824 824 824 823 822
693 695 697 699 701 703 705 708 711 714 717 720 724 719 712 715 723 729 732 733 734 732 733 740 746 750 752 755 761 766 774 783 786 789 793 796 797 802 810 811 814 821 821 822 827 829 830 831 825 820 822 828 833 837 841 844 847 850 853 854 852 850 842 829 825 826 825 827 827 826 828 824 817 813 816 821 822 822 820 819 818 818 819 821 821 820 819 817
691 693 694 697 699 701 703 707 710 713 717 719 718 712 705 706 711 717 724 735 742 737 737 743 745 750 754 756 759 761 768 782 790 792 792 794 796 801 809 811 814 821 823 823 827 833 834 828 820 821 825 829 834 837 842 846 849 852 853 854 853 848 841 832 828 827 827 827 826 827 830 824 816 813 816 819 817 815 814 815 815 815 816 817 817 816 816 815
688 690 692 695 696 699 702 704 709 713 715 715 712 707 705 706 711 718 722 733 745 744 742 745 746 750 756 759 759 760 765 776 786 791 791 792 795 799 805 810 815 821 824 821 823 830 833 828 822 822 824 829 837 840 843 849 851 852 853 855 851 845 842 836 829 828 828 829 828 827 828 823 815 814 814 814 813 811 811 813 814 815 814 813 813 813 813 812
685 688 690 692 695 698 700 704 710 712 711 711 710 705 704 708 714 720 724 734 745 746 746 747 747 750 754 756 758 761 765 771 778 785 788 790 795 800 803 808 814 821 822 818 819 824 829 828 823 823 825 829 838 842 845 850 852 852 852 852 847 842 840 836 832 829 828 831 830 827 830 824 814 815 812 807 811 811 810 811 810 811 812 811 813 812 811 810
682 685 686 690 694 696 701 707 708 706 707 710 709 706 705 709 715 718 722 734 745 749 750 748 748 752 753 754 759 761 766 773 777 780 784 787 792 798 803 807 812 820 821 819 822 825 828 828 823 826 829 831 837 842 843 846 852 854 849 845 842 839 836 834 834 832 832 835 829 827 836 827 811 813 813 806 808 809 807 809 807 805 807 810 811 807 806 807
678 681 683 687 691 697 706 706 699 702 707 707 705 705 704 707 715 716 719 734 745 750 751 747 748 752 752 756 759 760 770 781 781 780 784 788 789 791 801 807 809 817 820 819 822 824 826 826 824 827 831 833 839 842 839 840 852 854 841 834 836 836 835 834 834 833 834 835 829 828 835 831 816 808 806 806 806 804 803 805 804 801 803 805 805 802 802 803
674 676 680 684 689 698 702 695 694 701 702 700 701 703 702 707 714 715 721 734 739 743 747 746 747 748 751 757 757 758 771 780 783 785 785 787 789 789 799 806 807 814 816 818 824 823 824 829 829 828 831 836 838 837 835 835 847 846 831 829 833 833 833 834 835 833 832 832 831 830 832 833 824 807 806 812 808 805 804 804 802 800 800 800 798 798 798 799
668 671 676 680 687 692 691 689 694 696 693 694 698 700 700 706 713 716 723 728 728 734 741 745 747 747 752 758 759 762 767 769 778 788 786 787 791 791 799 804 805 813 813 815 825 823 821 827 829 829 833 836 832 830 831 835 842 837 827 831 833 831 831 831 834 835 834 833 830 831 832 834 826 809 810 817 809 804 803 800 798 795 794 794 793 793 794 794
662 666 670 677 684 686 686 690 691 688 689 693 695 697 699 705 714 720 723 720 722 730 734 742 749 750 754 759 765 769 767 768 776 783 786 788 790 791 798 803 804 812 813 812 819 820 819 820 822 828 831 829 827 828 830 834 838 832 829 834 834 834 834 834 839 836 837 838 828 826 830 831 823 806 806 813 808 802 797 794 793 789 788 789 788 789 790 792
656 660 665 674 679 679 685 691 686 684 690 691 691 696 698 704 713 717 716 714 721 731 733 741 749 750 753 761 771 774 770 774 776 778 787 789 789 791 796 800 804 813 817 815 817 818 817 817 819 823 823 822 826 829 830 832 834 833 832 833 834 837 837 839 841 836 840 840 824 821 825 825 822 806 799 802 796 791 789 787 787 785 785 785 785 786 787 789
650 654 660 668 670 673 680 681 679 684 688 687 691 695 697 706 711 708 707 708 719 733 736 741 748 749 750 755 768 774 773 778 777 777 786 789 791 794 797 802 807 816 823 822 821 819 819 821 820 818 818 820 827 830 831 832 834 836 836 835 839 843 841 843 842 840 844 836 823 828 831 828 823 805 792 791 785 784 785 782 779 779 781 782 783 784 785 787
642 647 655 661 662 667 669 666 674 684 685 684 688 691 696 706 707 703 707 709 717 729 732 735 743 747 748 752 763 770 772 778 778 776 781 785 792 793 793 798 804 816 828 827 824 823 821 822 819 817 817 819 826 833 836 835 836 839 839 841 847 851 852 853 847 844 842 831 831 841 834 826 819 798 787 789 784 783 784 780 777 778 779 779 780 782 784 786
634 642 649 653 656 660 659 662 675 681 681 682 683 688 696 698 697 701 711 715 713 718 723 730 739 743 746 755 766 770 772 776 776 776 779 783 790 792 791 793 796 804 816 821 824 825 825 822 817 818 820 817 819 827 833 834 835 837 838 841 846 849 855 857 851 846 839 831 836 843 833 823 813 794 783 782 778 779 783 783 782 782 781 779 780 783 785 786
626 636 642 647 651 654 656 665 675 674 676 679 678 687 693 689 694 703 712 716 711 714 724 731 741 747 748 758 767 766 770 778 775 774 781 785 790 793 791 792 793 794 804 815 819 820 824 822 815 814 815 814 815 817 820 823 828 831 830 833 837 836 840 844 842 837 835 834 838 840 831 817 803 788 780 779 779 783 786 787 789 788 786 785 784 785 785 785
619 630 637 643 647 650 656 664 670 670 671 674 677 685 683 683 697 705 706 710 711 718 730 733 738 748 755 762 766 761 764 775 776 775 781 783 785 787 785 788 791 790 798 810 812 812 817 815 808 808 809 809 813 814 813 817 826 828 825 827 830 824 821 830 835 833 831 831 833 833 823 807 794 782 780 785 783 781 784 786 787 785 785 786 783 782 784 785
615 626 633 638 640 646 655 659 666 668 665 669 679 681 674 674 687 693 693 696 700 710 726 735 739 748 760 767 767 762 760 767 774 778 782 781 781 783 781 783 786 786 790 798 801 806 813 813 808 809 810 807 809 810 811 816 821 824 826 824 821 818 815 822 834 839 836 827 823 824 813 801 795 782 777 782 779 775 779 781 781 781 783 784 781 781 784 784
609 619 628 633 634 642 650 655 663 664 660 667 674 671 666 667 673 678 680 684 690 697 709 725 733 737 752 764 767 762 758 764 774 778 782 783 779 777 778 778 779 781 782 786 793 798 804 811 809 806 809 810 810 810 810 813 814 818 823 818 815 821 820 818 824 833 836 827 820 823 814 800 798 788 777 777 774 770 772 774 778 781 782 781 779 781 783 783
603 616 624 627 631 639 646 653 661 659 659 666 668 663 662 666 669 671 675 681 690 693 699 713 720 723 734 746 754 755 751 757 770 773 777 780 773 766 771 775 775 777 777 779 789 791 793 807 812 806 807 811 812 812 812 814 813 814 817 812 813 823 822 818 820 824 829 826 818 820 820 809 801 789 774 772 770 764 764 770 775 777 777 779 779 780 782 783
600 614 620 621 629 637 643 652 657 657 660 663 660 660 662 665 668 668 671 678 685 688 693 702 709 718 726 728 737 745 741 744 756 762 766 770 766 759 760 766 771 775 776 776 784 788 789 802 812 808 806 808 809 811 813 815 815 815 814 811 811 814 813 812 813 813 817 820 816 816 818 810 796 783 770 765 762 758 761 767 770 769 772 777 778 777 780 782
594 607 616 618 626 636 644 653 656 656 659 654 649 655 658 661 666 667 668 671 675 680 685 691 699 710 720 726 733 737 736 740 746 750 754 757 760 758 754 758 765 771 775 777 781 786 788 795 807 811 809 809 808 807 808 809 812 814 813 813 812 809 809 809 808 809 808 810 813 814 812 798 783 776 767 758 755 758 762 764 764 767 771 774 776 777 778 782
589 602 612 617 625 636 643 649 650 653 657 649 644 650 654 656 663 668 669 668 670 673 675 682 691 699 710 721 730 731 733 742 745 746 751 753 755 756 751 750 758 766 774 781 781 783 787 791 801 810 810 808 805 803 804 802 803 807 806 807 806 805 811 815 814 812 807 807 810 811 806 788 769 769 766 757 757 761 765 766 764 767 770 772 776 777 778 781
586 597 606 613 623 632 639 643 644 648 652 648 644 646 648 653 660 666 671 671 671 672 676 683 689 696 705 711 719 724 727 735 741 740 744 746 745 747 746 746 754 762 770 778 778 778 784 788 798 807 808 806 804 805 811 808 802 803 804 802 800 801 805 810 812 808 805 810 814 812 806 783 764 771 773 766 767 768 770 772 768 767 770 771 774 777 779 781
586 596 605 614 621 628 635 640 642 646 649 646 643 643 644 650 657 664 669 671 672 673 677 686 691 695 703 708 715 723 724 730 737 734 737 744 743 742 743 744 751 759 765 771 775 777 780 785 796 807 807 803 802 803 811 814 808 803 803 802 801 800 798 799 804 803 800 804 805 807 805 781 763 775 780 774 775 774 772 774 770 768 771 771 774 776 779 781
588 597 607 617 623 626 631 632 634 642 647 645 644 644 645 650 654 660 665 667 668 669 672 681 684 685 694 702 708 713 715 723 735 736 735 740 742 741 742 742 745 752 755 757 762 769 775 782 793 806 813 812 810 807 805 808 809 803 801 804 802 800 800 801 805 805 801 798 794 797 798 779 763 772 776 772 774 769 766 770 771 770 770 771 774 777 779 781
590 598 610 621 624 625 626 623 625 635 641 642 645 645 645 651 653 653 658 662 664 665 668 674 677 679 689 697 703 707 706 709 723 734 736 737 740 742 742 740 739 743 746 748 753 761 769 777 782 792 804 808 806 801 793 795 804 804 800 802 802 800 801 799 801 803 800 799 796 792 788 775 763 765 765 765 767 762 759 764 769 770 771 772 774 777 779 780
583 594 608 619 624 626 626 623 622 627 628 633 645 647 645 652 656 653 656 663 665 665 668 673 676 683 693 699 706 712 709 707 715 725 730 733 736 739 740 738 738 741 744 748 753 759 766 773 773 773 781 784 784 785 783 786 796 799 796 796 797 799 799 798 801 800 795 798 798 788 781 774 764 759 759 760 762 759 757 760 764 768 770 772 774 777 779 780
579 588 600 608 617 624 628 628 626 625 621 623 635 642 642 648 656 658 659 661 662 663 668 675 677 683 693 698 705 712 711 711 715 718 722 728 732 737 741 741 740 741 744 748 752 756 763 771 770 769 773 773 772 778 781 782 788 791 793 794 793 794 796 796 797 791 788 794 793 783 782 779 767 758 755 755 756 757 756 756 759 764 769 772 774 777 778 779
581 587 596 600 607 616 623 627 628 626 623 622 628 636 641 646 652 655 657 660 661 659 665 676 678 678 685 689 695 706 711 714 718 718 721 727 732 736 742 745 744 742 742 747 750 750 756 766 768 770 775 772 770 775 778 777 780 785 788 790 790 792 793 791 787 782 783 786 780 775 778 776 768 760 753 751 756 759 758 758 760 765 769 772 774 775 776 778
585 590 599 602 605 610 615 619 624 627 627 626 629 634 638 643 646 646 649 656 660 656 657 669 675 673 677 681 685 696 703 706 712 714 714 719 724 727 735 742 744 745 743 745 751 752 753 762 768 770 774 774 774 778 779 777 778 781 783 783 783 785 786 783 780 779 780 779 772 773 775 772 768 763 754 755 763 766 766 767 766 767 769 771 773 773 773 775
583 586 594 601 607 609 609 612 616 623 628 626 626 630 632 636 640 642 644 647 651 652 651 656 663 667 672 675 677 682 682 679 687 697 701 710 717 718 723 728 733 743 744 744 752 754 752 762 770 769 773 777 776 779 781 780 780 781 780 778 775 775 777 778 777 779 781 779 776 778 778 772 768 765 762 763 767 767 764 763 764 766 768 770 771 771 772 772
584 586 587 594 607 609 609 612 610 615 624 624 623 627 629 631 634 637 643 644 642 645 646 648 657 667 674 677 674 673 671 668 673 681 686 694 699 700 706 714 723 736 743 744 749 750 753 765 770 769 775 778 776 779 781 782 786 785 778 774 773 772 772 772 773 775 775 775 779 782 777 768 764 764 764 762 764 764 759 757 760 765 768 768 767 766 767 767
587 590 587 589 601 606 606 610 612 614 619 619 621 624 624 627 631 632 640 646 643 642 646 650 659 671 678 680 674 670 673 677 681 685 686 687 690 693 700 708 714 723 734 742 747 749 753 761 766 770 772 775 781 783 780 784 791 782 764 763 770 771 770 770 769 767 766 768 773 772 763 758 759 759 758 757 761 763 757 754 758 761 764 766 763 761 762 762